星链-31279 (STARLINK-31279 )

导读

STARLINK-31279是美国SpaceX公司星链(Starlink)卫星互联网星座中的一颗卫星,于2024年2月29日发射入轨。星链项目计划在近地轨道部署数万颗卫星,旨在为全球尤其是偏远地区提供低延迟、高速宽带互联网服务。STARLINK-31279加入运营中的星链星座,进一步拓展了星链的全球覆盖能力,助力该项目实现全球互联的目标,单颗卫星设计寿命约为五年,失效后会再入大气层销毁。

基本信息
目录编号:
59086
目录名称:
STARLINK-31279
国际标识:
2024-041N
轨道中心:
EARTH
卫星名称:
星链-31279
卫星全名:
星链-31279 (STARLINK-31279 )
卫星状态:
在轨 (已飞行925 天)
发射日期:
2024-02-29 UTC
国别 :
美国 (US)
星等 :
--
该卫星已列入 空间交会检测服务 Space Conjunction Data Service (SCDS) ,当前飞行风险评估等级: 无高风险
轨道信息
数据来源 国际轨道数据 AOE轨道数据
星历时间 2026-09-11T15:07:07+0800
12小时前
查看轨道信息
2026-09-06T01:00:00+0800
6天前
查看轨道信息
半长轴 6861.189km 6861.209km
偏心率 0.0001889 0.0001562
轨道倾角 43.008° 43.006°
近地点辐角 274.580° 273.347°
升交点赤经 342.841° 14.403°
平近点角 85.483° 279.135°
近地点 481.755km 482km
远地点 484.349km 484.144km
周期 94.267分钟 94.267分钟
每日圈数 15.275792 15.275725
详细信息
固有亮度:
5
最大亮度:
0.3
卫星平台:
Starlink v2.0 mini
覆盖范围:
全球
运营商:
太空探索技术公司
运营商所在国:
美国
制造商(研发单位):
太空探索技术公司
制造商所在国:
美国
使用方式:
暂无
卫星简介
星链(Starlink)计划是由太空探索技术公司(SpaceX)提出的一个巨型低轨卫星互联网星座项目,计划在2019年至2024年间在太空搭建由约1.2万颗卫星组成的“星链”网络,其中1584颗将部署在地球上空550千米处的近地轨道,并从2020年开始工作。该卫星仍在工作。
2D轨道图
3D轨道图
轨道高度分析图
轨道倾角分析图
轨道综合分析图
查看轨道综合分析图
与全量物体交会距离演化趋势
与全量物体交会风险概率演化趋势